EST,Max TemperatureF,Mean TemperatureF,Min TemperatureF,Max Dew PointF,MeanDew PointF,Min DewpointF,Max Humidity, Mean Humidity, Min Humidity, Max Sea Level PressureIn, Mean Sea Level PressureIn, Min Sea Level PressureIn, Max VisibilityMiles, Mean VisibilityMiles, Min VisibilityMiles, Max Wind SpeedMPH, Mean Wind SpeedMPH, Max Gust SpeedMPH,PrecipitationIn, CloudCover, Events, WindDirDegrees
2014-2-1,42,36,30,34,23,16,87,59,39,30.33,30.22,30.02,10,9,0,10,4,,0.00,1,,132
2014-2-2,55,42,30,36,32,27,93,69,44,30.08,29.98,29.92,10,6,0,10,3,,0.00,6,,285
2014-2-3,42,36,30,34,28,23,87,79,61,30.30,30.13,30.03,10,6,1,16,9,20,0.77,8,,5
2014-2-4,33,26,19,27,21,12,80,72,60,30.46,30.37,30.22,10,10,7,10,6,,0.00,5,,355
2014-2-5,35,34,32,30,29,23,87,81,65,30.21,29.85,29.63,10,5,2,20,11,28,0.90,8,,14
2014-2-6,32,26,21,21,14,10,69,61,51,30.28,30.21,29.97,10,10,10,23,13,31,0.00,3,,304
2014-2-7,33,28,23,16,13,10,69,53,41,30.34,30.28,30.23,10,10,10,16,8,20,0.00,1,,277
2014-2-8,28,24,21,12,8,1,63,50,36,30.34,30.26,30.15,10,10,10,8,6,,0.00,2,,294
2014-2-9,30,24,19,21,12,7,80,59,40,30.18,30.10,30.01,10,9,1,9,6,,0.05,5,,278
2014-2-10,28,22,15,19,9,3,80,57,43,30.28,30.14,30.00,10,9,1,18,10,24,0.05,0,,295
2014-2-11,24,17,10,3,2,0,67,51,36,30.46,30.36,30.28,10,10,10,17,8,24,0.00,0,,310
2014-2-12,26,17,8,19,7,-2,80,62,49,30.54,30.45,30.25,10,10,2,12,7,17,0.00,2,,25
2014-2-13,35,30,24,30,28,19,87,83,80,30.24,29.58,29.03,10,4,2,29,16,40,0.71,8,,33
2014-2-14,42,35,28,28,24,19,87,65,49,29.78,29.45,29.04,10,9,1,30,16,41,0.04,2,,270
2014-2-15,37,32,26,30,25,14,87,73,59,29.80,29.67,29.52,10,7,1,23,8,30,0.12,6,,14
2014-2-16,28,24,19,14,9,7,59,52,47,30.11,29.95,29.76,10,10,10,21,14,29,0.00,2,,290
2014-2-17,32,24,15,7,4,1,58,44,31,30.39,30.31,30.12,10,10,4,17,10,26,0.00,0,,297
2014-2-18,44,34,24,36,25,9,87,68,47,30.32,30.09,29.96,10,8,0,21,7,30,0.17,4,,226
2014-2-19,44,36,28,39,33,21,93,80,70,30.10,29.90,29.71,10,6,0,13,5,18,0.30,4,,210
2014-2-20,48,39,30,34,28,25,81,62,40,30.27,30.15,30.01,10,10,7,10,7,,0.00,3,,271
2014-2-21,59,48,37,55,40,34,100,86,76,30.00,29.86,29.67,10,5,0,20,7,34,0.05,7,,67
2014-2-22,57,47,37,34,26,18,81,48,21,30.08,30.02,29.94,10,10,10,21,8,36,0.00,0,,234
2014-2-23,57,48,39,34,29,25,61,49,38,30.03,29.94,29.86,10,10,10,12,7,16,0.00,0,,257
2014-2-24,42,35,26,32,17,9,81,51,33,30.09,29.93,29.83,10,10,10,22,12,32,0.00,2,,283
2014-2-25,33,28,24,16,11,7,55,49,40,30.09,30.03,29.94,10,10,10,20,8,26,0.00,3,,271
2014-2-26,33,26,17,21,9,-2,80,50,29,29.98,29.89,29.82,10,9,1,24,7,30,0.00,4,,271
2014-2-27,35,24,12,18,4,-11,62,43,28,30.09,29.79,29.62,10,10,10,24,8,34,0.00,3,,269
2014-2-28,24,16,8,3,-7,-17,58,36,26,30.42,30.33,30.11,10,10,10,21,11,30,0.00,0,,303